星链-31895 (STARLINK-31895 )

导读

STARLINK-31895是美国星链项目低轨卫星,于2024年5月23日发射,属于SpaceX星链星座组网卫星,主要服务全球卫星互联网接入,填补地面通信覆盖盲区,支撑消费联网、海事航空通信与远程物联网连接,延续星链大规模部署节奏,进一步完善全球低轨通信星座规模。

基本信息
目录编号:
59849
目录名称:
STARLINK-31895
国际标识:
2024-097Q
轨道中心:
EARTH
卫星名称:
星链-31895
卫星全名:
星链-31895 (STARLINK-31895 )
卫星状态:
在轨 (已飞行834 天)
发射日期:
2024-05-23 UTC
国别 :
美国 (US)
星等 :
--
轨道信息
数据来源 国际轨道数据
星历时间: 2026-09-04T00:58:28+0800
12小时前
查看轨道信息
半长轴: 6861.114km
偏心率: 0.0002302
轨道倾角: 43.003°
近地点辐角 283.306°
升交点赤经 348.899°
平近点角 76.754°
近地点: 481.397km
远地点: 484.557km
周期: 94.265分钟
每日圈数: 15.276044
详细信息
固有亮度:
5
最大亮度:
1.5
卫星平台:
Starlink v2.0 mini
覆盖范围:
全球
运营商:
太空探索技术公司
运营商所在国:
美国
制造商(研发单位):
太空探索技术公司
制造商所在国:
美国
使用方式:
暂无
卫星简介
星链(Starlink)计划是由太空探索技术公司(SpaceX)提出的一个巨型低轨卫星互联网星座项目,计划在2019年至2024年间在太空搭建由约1.2万颗卫星组成的“星链”网络,其中1584颗将部署在地球上空550千米处的近地轨道,并从2020年开始工作。该卫星仍在工作。
2D轨道图
3D轨道图
轨道高度分析图
轨道倾角分析图
轨道综合分析图
查看轨道综合分析图
交会数据列表
事件ID 空间交会对象 最接近时刻(TCA) 交会距离 交会风险概率(CRP) 交会风险指数(CRI) 操作
CDM_260905-051605-974605-984921
2026-09-05T
05:16:59+0000
0.736 km
远距离
4.780019E-5 中风险 0.69
CDM_260903-060305-984906-394721
2026-09-03T
06:03:17+0000
1.844 km
极远距离
3.210776E-6 低风险 0.45
CDM_260905-034205-974605-984921
2026-09-05T
03:42:49+0000
1.873 km
极远距离
2.272836E-6 低风险 0.42
CDM_260905-065105-974605-984921
2026-09-05T
06:51:08+0000
2.201 km
极远距离
1.543132E-6 低风险 0.39